Location: Lafig�re
(44.4503°N, 4.0357°E)
Time: 00:41:05
(UTC+00:00)

ARGOS - Visible Passes

Search period start: 24 January 2021 00:00
Search period end: 03 February 2021 00:00
Orbit: 820 x 835 km, 98.4° (Epoch: 23 January)

Date Brightness Start Highest point End Pass type
(mag) Time Alt. Az. Time Alt. Az. Time Alt. Az.
24 Jan 6.0 06:33:33 10° NE 06:37:21 19° E 06:41:09 10° SE visible
24 Jan 3.6 17:57:56 10° SE 18:02:46 36° ENE 18:07:39 10° N visible
24 Jan 4.7 19:38:16 10° SSW 19:43:03 32° W 19:47:52 10° NNW visible
25 Jan 6.3 06:16:04 10° ENE 06:18:29 13° E 06:20:53 10° ESE visible
25 Jan 4.0 17:39:57 10° ESE 17:44:19 26° ENE 17:48:41 10° N visible
25 Jan 4.1 19:19:10 10° S 19:24:18 47° W 19:29:30 10° NNW visible
26 Jan 4.4 17:22:15 10° ESE 17:25:53 19° ENE 17:29:33 10° NNE visible
26 Jan 3.4 19:00:16 10° S 19:05:36 68° WSW 19:10:59 10° NNW visible
27 Jan 3.0 18:41:36 10° SSE 18:46:57 85° ENE 18:52:22 10° NNW visible
27 Jan 6.0 20:25:25 10° WSW 20:27:55 13° W 20:30:23 10° WNW visible
28 Jan 3.1 18:23:06 10° SSE 18:28:21 59° ENE 18:33:40 10° N visible
28 Jan 5.5 20:05:13 10° SW 20:09:01 19° W 20:12:51 10° NW visible
29 Jan 3.5 18:04:49 10° SE 18:09:49 42° ENE 18:14:52 10° N visible
29 Jan 5.0 19:45:39 10° SSW 19:50:12 28° W 19:54:48 10° NW visible
30 Jan 6.2 06:22:34 10° NE 06:25:42 15° E 06:28:48 10° SE visible
30 Jan 3.9 17:46:45 10° ESE 17:51:20 30° ENE 17:55:57 10° N visible
30 Jan 4.4 19:26:25 10° SSW 19:31:26 40° W 19:36:30 10° NNW visible
31 Jan 4.3 17:28:55 10° ESE 17:32:54 22° ENE 17:36:54 10° NNE visible
31 Jan 3.7 19:07:27 10° S 19:12:43 58° W 19:18:03 10° NNW visible
01 Feb 3.1 18:48:41 10° SSE 18:54:03 84° WSW 18:59:29 10° NNW visible
01 Feb 6.1 20:33:40 10° WSW 20:35:07 11° W 20:36:34 10° WNW visible
02 Feb 3.0 18:30:07 10° SSE 18:35:26 69° ENE 18:40:49 10° N visible
02 Feb 5.8 20:12:52 10° SW 20:16:13 17° W 20:19:36 10° NW visible
